Regional Weather Roundup
Issued by NWS

Home | Current Version | Previous Version | Graphics & Text | Print | Product List | Glossary On
Versions: 1 2 3 4 5 6 7 8 9 10 11 12 13 14 15 16 17 18 19 20 21 22 23 24 25 26 27 28 29 30 31 32 33 34 35 36 37 38 39 40 41 42 43 44 45 46 47 48 49 50
000
ASUS43 KMKX 032000
RWRWI

WISCONSIN REGIONAL WEATHER ROUNDUP
NATIONAL WEATHER SERVICE MILWAUKEE/SULLIVAN WI
200 PM CST TUE MAR 03 2015

NOTE: "FAIR" INDICATES FEW OR NO CLOUDS BELOW 12,000 FEET WITH NO
SIGNIFICANT WEATHER AND/OR OBSTRUCTIONS TO VISIBILITY.

WIZ001-002-006>008-014>016-023>028-032100-
NORTHWEST WISCONSIN

CITY           SKY/WX    TMP DP  RH WIND       PRES   REMARKS
SUPERIOR ARPT  CLOUDY    28  20  72 W16G24    29.59F WCI  16
ASHLAND        NOT AVBL
HAYWARD        NOT AVBL
SIREN          LGT SNOW  27  20  76 NW13G18   29.62F WCI  16
CUMBERLAND     LGT SNOW  27  19  74 W13G20    29.59F WCI  16
RICE LAKE      CLOUDY    28  20  72 W10G16    29.62S WCI  19
CHETEK         CLOUDY    28  20  72 W13G23    29.60S WCI  17
LADYSMITH      CLOUDY    28  21  76 W13       29.59S HAZE    WCI  17
EAU CLAIRE     NOT AVBL
MENOMONIE      CLOUDY    30  21  70 W20       29.63S WCI  17
NEW RICHMOND   FLURRIES  29  21  74 NW13      29.64F WCI  18
OSCEOLA        LGT SNOW  28  22  77 W15       29.68F WCI  17
$$

WIZ003>005-009-010-017-018-032100-
NORTH CENTRAL WISCONSIN

CITY           SKY/WX    TMP DP  RH WIND       PRES   REMARKS
MANITOWISH WTR CLOUDY    24  18  78 W12G17    29.49F WCI  12
ARBOR VITAE    PTSUNNY   25  18  75 W12       29.49F WCI  14
WOODRUFF       PTSUNNY   25  18  75 W12       29.49F WCI  14
RHINELANDER    NOT AVBL
EAGLE RIVER    CLOUDY    24  15  69 W8        29.47F WCI  15
LAND O LAKES   CLOUDY    25  18  76 W9        29.48F HAZE    WCI  15
PHILLIPS       CLOUDY    25  18  74 W8        29.52F WCI  17
TOMAHAWK       CLOUDY    25  17  69 W10G18    29.51F WCI  15
MEDFORD        CLOUDY    26  18  72 W14G22    29.53F WCI  14
MERRILL        CLOUDY    27  18  69 W14       29.53F WCI  15
$$

WIZ029-030-035-036-043>047-032100-
CENTRAL WISCONSIN

CITY           SKY/WX    TMP DP  RH WIND       PRES   REMARKS
WAUSAU         NOT AVBL
MOSINEE        NOT AVBL
MARSHFIELD     NOT AVBL
STEVENS POINT  MIX PCPN  24  20  87 W9        29.57F WCI  14
WAUPACA        CLOUDY    29  24  81 W12       29.58F WCI  19
WAUTOMA        NOT AVBL
WISC RAPIDS    CLOUDY    26  21  81 W12       29.60F HAZE    WCI  16
CAMP DOUGLAS   NOT AVBL
$$

WIZ011>013-019>022-031-037>040-048>050-032100-
NORTHEAST WISCONSIN

CITY           SKY/WX    TMP DP  RH WIND       PRES   REMARKS
ANTIGO         FLURRIES  24  18  77 W12       29.51F WCI  13
SHAWANO        LGT RAIN  29  25  82 W10       29.55F WCI  20
OCONTO         CLOUDY    28  26  93 W10       29.54F WCI  19
STURGEON BAY   CLOUDY    28  25  86 SW10      29.54F WCI  19
GREEN BAY      NOT AVBL
MANITOWOC      CLOUDY    30  28  93 W16       29.54F WCI  19
APPLETON       CLOUDY    27  25  93 W14       29.55F WCI  15
CLINTONVILLE   CLOUDY    28  23  80 W12       29.56F WCI  18
OSHKOSH        NOT AVBL
$$

WIZ032>034-041-042-053>061-032100-
SOUTHWEST WISCONSIN

CITY           SKY/WX    TMP DP  RH WIND       PRES   REMARKS
LA CROSSE      NOT AVBL
SPARTA         CLOUDY    29  24  82 W12       29.63F WCI  19
VIROQUA        CLOUDY    28  25  90 W12       29.61F WCI  18
BOSCOBEL       NOT AVBL
PRAIRIE DU CHI CLOUDY    32  26  77 W16G24    29.66F WCI  21
PLATTEVILLE    CLOUDY    32  29  90 W14G21    29.62F WCI  22
$$

WIZ056-057-062-063-064-067-068-032100-
SOUTH CENTRAL WISCONSIN

CITY           SKY/WX    TMP DP  RH WIND       PRES   REMARKS
REEDSBURG      CLOUDY    28  25  88 W13       29.60F WCI  18
BARABOO/DELLS  CLOUDY    28  25  86 W12G17    29.59F WCI  18
LONE ROCK      NOT AVBL
MINERAL POINT  CLOUDY    32  30  93 W17       29.61F WCI  21
MADISON        NOT AVBL
MIDDLETON      CLOUDY    32  28  85 W18       29.60F WCI  21
WATERTOWN      CLOUDY    31  30  97 W10       29.58F WCI  22
MONROE         CLOUDY    32  30  93 W15       29.60F WCI  22
JANESVILLE     CLOUDY    34  30  86 W13       29.60F FOG     WCI  25
$$

WIZ051-052-058>065-066-070>072-032100-
SOUTHEAST WISCONSIN

CITY           SKY/WX    TMP DP  RH WIND       PRES   REMARKS
MILWAUKEE      NOT AVBL
WAUKESHA       CLOUDY    28  27  93 SW12G18   29.59F FOG     WCI  18
MILWAUKEE/TIMM CLOUDY    30  27  86 SW14      29.58F WCI  20
RACINE         NOT AVBL
BURLINGTON     CLOUDY    31  28  90 W12       29.60F WCI  22
KENOSHA        NOT AVBL
FOND DU LAC    NOT AVBL
SHEBOYGAN      CLOUDY    30  25  81 W16G25    29.55F WCI  19
WEST BEND      CLOUDY    32  27  80 W15G22    29.56F WCI  22
JUNEAU         CLOUDY    29  27  92 SW15      29.58F WCI  18
$$

LSZ147-162-032100-
LAKE SUPERIOR

STATION/POSITION TIME  TEMP    WIND        PRES    WAVE
                       AIR SEA DIR/SP/G            HT/PER
                 (UTC) (F)     (DEG/KT/KT) (MB)    (FT/S)
DEVILS ISLAND    1900   24     240/ 23/ 27 1001.6F
PORT WING        1800   25     250/  9/ 14 1002.7
SAXON HARBOR     1820   25     210/  7/ 14 1002.0F
$$

LMZ867-665-643>646-032100-
LAKE MICHIGAN

STATION/POSITION TIME  TEMP    WIND        PRES    WAVE
                       AIR SEA DIR/SP/G            HT/PER
                 (UTC) (F)     (DEG/KT/KT) (MB)    (FT/S)
NORTHPORT PIER   1908   28     160/  6/ 20 1001.0F
SISTER BAY       1858   29     200/ 15/ 19   N/A
KEWAUNEE LAKESHO 1900   29     220/  7/ 11 1000.7F
SHEBOYGAN LAKESH 1800   30     200/  7/  8 1003.8F
PORT WASHINGTON  1900   31     250/  3/  5 1002.7
MILWAUKEE LAKESH 1900   32     240/ 11/ 16   N/A
$$

TC  - TEMPERATURE IN CELSIUS
VSB - VISIBILITY IN STATUTE MILES
WCI - WIND CHILL INDEX
HX  - HEAT INDEX




USA.gov is the U.S. government's official web portal to all federal, state and local government web resources and services.